Wind_Speed
14 16 17 17 18 19 20 20 20 20 21 21 21 21 21 22 22 23 23 23 23 23 23 23 22 22 22 22 22 22 22 21 22 22 22 22 22 22 22 23 23 23 23
14 15 17 18 19 20 21 21 21 22 22 23 23 23 24 25 25 26 26 26 26 27 27 27 27 26 26 26 26 26 25 25 25 25 26 26 26 26 26 26 26 27 27
13 15 15 17 18 19 20 21 22 23 24 25 26 26 27 28 28 28 29 29 29 30 30 30 30 30 30 30 29 29 29 29 28 29 29 29 29 29 29 30 30 30 30
13 15 15 16 17 19 20 22 23 25 26 27 28 29 30 31 31 32 32 32 32 32 33 33 34 34 33 33 33 33 33 32 32 32 31 32 32 33 33 33 33 33 33
14 15 16 17 18 19 21 23 25 26 27 28 29 31 32 33 34 34 34 35 36 36 36 37 37 37 37 37 36 36 36 35 35 35 35 35 36 36 37 36 36 36 36
15 17 17 17 18 19 21 23 24 25 25 27 28 30 33 34 35 36 37 37 38 38 39 39 39 39 39 40 40 39 39 38 39 39 39 39 39 40 41 40 40 39 39
15 16 17 19 20 20 21 22 22 23 25 28 30 30 31 33 35 36 38 39 40 40 40 40 40 40 40 41 42 42 42 42 42 42 42 42 42 43 43 43 44 44 42
17 19 20 20 21 21 22 24 25 26 28 29 30 31 32 34 36 36 37 39 41 41 41 41 42 42 43 43 43 43 44 44 44 44 44 44 44 45 46 47 47 47 46
18 19 20 21 21 22 23 24 26 28 29 31 32 33 34 35 36 37 38 39 40 41 42 42 42 43 44 44 45 44 45 45 46 47 47 47 47 48 49 49 50 50 49
20 20 21 22 23 24 25 26 28 29 30 31 33 33 33 34 34 35 38 39 40 41 42 42 43 44 44 45 45 46 46 47 48 49 50 50 50 51 51 52 53 54 54
21 21 22 23 24 25 25 26 27 28 30 30 31 32 33 33 34 35 37 39 40 41 42 42 43 44 45 46 47 48 48 49 50 51 52 52 53 54 55 56 57 58 58
22 22 23 24 25 26 27 27 28 29 30 30 32 34 34 35 37 37 38 39 40 42 43 43 44 45 46 47 48 49 50 52 52 53 53 54 54 56 57 59 60 61 62
24 24 25 26 27 28 29 30 30 31 32 33 34 35 36 37 38 38 39 40 41 43 44 45 46 46 48 49 51 53 54 54 55 55 56 57 58 60 61 62 63 65 66
25 26 27 28 29 30 30 31 32 33 34 35 36 37 38 39 40 40 42 43 44 45 46 47 48 50 51 52 53 55 55 56 57 58 58 60 61 62 64 65 66 66 67
27 28 29 30 31 31 32 33 33 34 35 37 37 38 39 41 42 43 45 46 47 48 50 51 51 52 53 54 56 57 57 58 58 59 60 62 63 64 64 65 65 66 66
29 30 31 31 32 33 34 35 35 36 37 38 39 40 41 43 44 46 47 49 50 51 52 53 53 54 54 55 56 57 58 59 60 60 61 61 62 62 62 63 64 64 64
30 31 32 33 34 35 36 37 38 39 40 41 42 42 44 45 46 47 48 49 51 52 52 53 54 54 54 55 55 56 57 58 58 58 58 59 59 60 60 60 60 61 60
32 33 34 35 36 37 39 40 41 42 42 43 44 46 47 48 49 50 50 51 52 52 53 53 53 54 54 55 55 55 55 55 55 55 55 55 55 55 55 55 54 53 52
34 35 36 38 39 41 42 43 44 45 46 47 48 49 50 50 51 51 52 52 52 52 51 51 51 51 51 51 51 51 51 50 49 49 49 48 48 48 47 46 45 44 43
36 37 39 40 42 43 44 45 46 47 48 49 50 50 51 51 51 51 51 50 50 49 48 48 47 47 46 46 45 45 44 44 43 43 42 41 41 40 39 38 38 37 37
38 40 41 42 43 44 45 46 47 48 49 49 49 49 49 49 48 48 47 47 46 45 44 43 43 42 41 40 39 39 38 38 38 37 36 36 35 34 33 33 32 32 32
40 42 43 44 44 45 46 47 47 47 47 47 47 47 46 45 45 44 44 43 41 40 40 39 38 37 36 36 35 35 34 34 33 33 33 32 32 30 29 29 29 28 28
41 42 43 43 44 44 45 45 45 44 44 44 44 43 42 42 41 40 39 38 37 36 36 35 34 33 33 32 32 31 31 30 30 30 30 29 28 27 26 26 25 24 25
41 41 42 42 43 43 42 42 41 41 40 40 40 39 38 37 36 35 34 33 33 32 31 31 30 30 29 29 29 28 27 27 27 26 26 25 25 24 23 23 23 22 23
40 40 41 41 40 39 38 38 37 37 36 36 36 35 34 33 32 31 30 30 30 29 28 27 27 27 26 25 25 25 24 23 23 22 22 21 21 20 21 21 21 21 22
39 38 38 37 37 36 36 35 35 34 34 34 33 32 31 30 30 29 28 27 27 26 26 25 25 24 23 23 22 22 21 21 20 20 20 19 19 19 20 20 20 21 21
Wind_Direction
229 231 232 232 233 233 235 237 238 240 243 245 248 250 253 256 257 258 260 262 264 266 268 269 271 272 272 273 274 274 275 275 275 274 274 274 273 274 274 275 274 273 273
233 235 238 239 239 237 238 240 242 245 248 251 251 253 256 258 259 261 262 264 266 268 269 270 272 273 273 273 274 274 274 274 274 273 273 273 273 273 273 274 274 273 272
238 236 238 241 240 241 243 245 248 250 252 254 256 257 259 260 261 263 264 266 268 269 270 271 272 272 273 273 274 274 274 274 274 274 273 273 273 273 273 274 274 273 273
247 244 244 246 246 248 248 250 252 255 258 259 261 261 262 263 263 265 265 267 268 269 270 272 272 272 273 273 273 274 274 274 275 274 274 274 274 273 273 273 274 274 273
254 251 251 252 254 256 256 257 258 261 262 263 264 264 265 266 266 266 268 269 270 270 271 271 272 272 272 272 273 274 274 274 274 274 274 275 275 274 275 274 274 273 273
260 260 257 256 259 260 261 261 262 263 265 264 265 269 269 267 268 269 269 269 270 271 272 272 272 273 273 272 272 272 273 273 274 274 274 274 274 274 275 275 274 273 272
264 266 267 263 265 265 269 268 268 269 269 268 269 271 272 272 272 272 271 270 270 272 271 271 271 272 272 273 273 273 272 273 274 275 275 274 274 274 274 274 274 274 273
269 269 268 269 270 270 270 269 270 271 271 271 271 272 272 272 271 271 272 272 271 272 271 271 271 272 273 273 273 273 272 273 273 274 275 275 275 275 275 275 274 274 274
272 275 274 274 274 273 274 273 271 272 273 272 271 271 273 273 272 272 273 273 272 271 272 272 272 272 273 273 273 274 274 275 276 277 276 275 275 275 275 275 275 275 274
273 274 277 279 279 279 278 277 275 274 273 273 273 274 275 276 275 275 276 274 272 272 272 273 273 271 272 273 273 274 274 275 276 277 277 276 276 276 276 276 276 276 275
276 277 281 282 282 283 284 283 281 279 278 278 278 278 278 278 277 277 277 276 274 273 273 274 274 273 272 274 275 274 275 275 276 277 277 277 278 278 277 277 277 277 277
281 281 283 284 285 285 285 285 284 282 282 281 279 280 280 279 278 278 278 276 276 275 274 274 274 274 274 274 275 276 276 276 276 277 277 277 277 278 278 277 278 278 277
283 284 285 287 288 287 287 286 285 283 282 281 281 281 281 281 279 278 278 277 277 276 276 276 275 275 275 276 277 277 276 276 277 277 278 277 277 277 277 278 278 277 278
286 286 287 288 289 289 288 287 286 286 285 284 283 282 281 280 280 279 279 279 280 280 280 279 278 278 278 278 278 278 278 278 278 279 279 279 279 279 279 279 278 278 278
288 289 289 290 290 290 290 289 288 287 286 285 284 283 282 281 281 280 280 280 280 280 280 280 281 280 280 279 279 279 279 279 280 280 280 280 280 280 280 280 280 279 279
290 291 292 291 291 291 290 290 289 288 287 287 286 284 283 282 282 282 281 282 282 282 281 282 282 281 281 280 280 280 281 281 282 282 282 282 282 282 281 281 282 281 281
291 292 292 292 292 291 291 290 290 289 289 288 287 286 285 285 284 284 284 284 283 283 283 283 283 282 282 282 282 282 282 283 283 283 283 283 283 283 283 283 283 283 283
292 292 293 293 293 292 292 292 291 291 290 290 289 288 287 286 286 286 285 285 285 285 285 284 284 283 283 283 283 283 284 284 284 284 284 284 285 285 285 285 286 286 286
293 293 293 293 293 293 293 292 292 291 291 291 290 290 289 289 288 288 288 287 287 287 287 287 286 286 285 285 285 285 285 285 285 286 286 287 287 287 287 288 287 287 287
293 294 294 294 294 294 293 293 293 292 292 292 292 292 292 292 292 292 291 291 290 290 290 289 289 288 288 288 288 288 287 287 287 288 288 289 289 290 290 290 289 289 290
294 294 294 295 295 295 294 294 294 294 294 294 294 294 294 294 294 294 293 292 292 292 291 291 291 290 290 291 292 291 290 289 289 289 290 291 291 291 291 291 291 292 293
295 295 295 296 296 296 296 296 296 297 297 297 297 297 297 296 296 296 295 295 294 293 293 292 291 291 291 292 292 293 292 292 292 291 291 291 291 291 292 293 294 294 296
296 297 297 298 298 298 298 298 299 300 300 300 300 300 299 299 298 298 297 297 297 296 296 295 294 293 292 292 293 294 294 293 292 292 292 292 291 291 293 295 297 297 299
298 299 299 299 299 300 300 300 301 302 303 303 304 303 302 302 301 301 300 299 299 298 297 296 296 295 294 294 295 295 296 295 295 294 294 294 293 292 293 296 297 298 301
300 301 301 301 302 302 303 304 305 306 306 307 307 306 306 305 305 304 303 302 301 300 300 300 299 299 298 298 298 298 298 299 299 298 298 297 296 295 296 298 299 299 301
301 301 302 302 303 304 306 307 308 308 308 308 309 309 308 308 307 306 305 304 302 302 303 303 302 302 302 301 301 301 301 302 302 302 302 300 299 299 299 299 301 302 303
Height
5828 5830 5831 5833 5835 5838 5840 5841 5843 5845 5846 5848 5849 5850 5851 5853 5853 5854 5855 5855 5856 5856 5856 5856 5856 5855 5855 5855 5855 5854 5854 5853 5852 5852 5851 5850 5849 5848 5847 5846 5846 5845 5844
5825 5827 5829 5830 5832 5834 5836 5837 5839 5841 5842 5843 5844 5846 5847 5847 5848 5849 5849 5850 5850 5850 5850 5850 5850 5850 5849 5849 5848 5848 5847 5847 5846 5845 5844 5844 5842 5842 5841 5840 5839 5838 5837
5823 5824 5825 5827 5829 5830 5832 5833 5835 5836 5837 5838 5839 5840 5841 5841 5842 5842 5843 5843 5843 5843 5843 5843 5843 5842 5842 5841 5841 5840 5840 5839 5839 5838 5837 5836 5835 5834 5833 5832 5832 5831 5830
5820 5821 5823 5824 5826 5827 5828 5829 5830 5831 5832 5833 5833 5834 5834 5835 5835 5835 5835 5836 5835 5835 5835 5835 5834 5834 5834 5833 5832 5832 5832 5831 5830 5829 5828 5828 5827 5825 5825 5824 5823 5822 5821
5818 5818 5819 5821 5822 5823 5823 5824 5825 5826 5826 5827 5827 5827 5827 5827 5827 5827 5827 5827 5827 5827 5826 5826 5825 5825 5824 5824 5823 5822 5822 5822 5821 5820 5819 5818 5817 5815 5815 5814 5813 5812 5811
5814 5814 5815 5817 5818 5818 5818 5818 5819 5819 5819 5820 5820 5820 5819 5819 5819 5818 5818 5818 5817 5817 5816 5815 5815 5815 5814 5813 5812 5811 5811 5811 5810 5809 5808 5808 5806 5805 5803 5802 5802 5801 5801
5810 5810 5812 5812 5812 5813 5813 5813 5813 5813 5813 5813 5812 5812 5811 5810 5809 5809 5808 5808 5807 5806 5806 5805 5804 5804 5803 5802 5801 5800 5799 5799 5798 5797 5797 5796 5794 5793 5791 5790 5789 5788 5789
5807 5807 5807 5807 5807 5807 5807 5807 5807 5806 5806 5805 5804 5803 5802 5801 5800 5799 5798 5797 5796 5796 5795 5794 5793 5792 5792 5790 5789 5788 5787 5786 5785 5784 5784 5783 5781 5780 5778 5778 5776 5775 5775
5802 5802 5801 5801 5801 5801 5801 5800 5799 5799 5798 5796 5795 5794 5793 5792 5790 5789 5787 5786 5785 5785 5784 5782 5781 5780 5779 5778 5777 5776 5775 5774 5772 5771 5770 5769 5768 5766 5765 5763 5762 5761 5761
5797 5796 5796 5796 5795 5794 5793 5792 5791 5790 5789 5788 5787 5785 5784 5783 5781 5779 5778 5776 5774 5773 5772 5771 5770 5768 5767 5766 5764 5764 5763 5761 5759 5758 5756 5755 5753 5752 5749 5748 5747 5745 5744
5791 5791 5790 5789 5788 5787 5786 5785 5783 5782 5780 5779 5778 5776 5774 5773 5771 5769 5767 5765 5763 5761 5760 5759 5758 5756 5755 5753 5752 5750 5749 5748 5746 5744 5742 5740 5738 5736 5734 5732 5730 5728 5727
5785 5784 5783 5782 5781 5780 5778 5777 5775 5774 5772 5770 5768 5767 5764 5763 5761 5758 5756 5755 5752 5750 5748 5747 5745 5743 5742 5740 5738 5736 5735 5733 5731 5729 5727 5725 5723 5721 5718 5715 5713 5710 5708
5778 5777 5775 5774 5773 5771 5770 5768 5766 5764 5763 5761 5759 5757 5754 5752 5750 5748 5745 5743 5741 5738 5736 5734 5732 5730 5728 5726 5724 5722 5719 5717 5715 5713 5711 5708 5706 5704 5701 5698 5695 5692 5689
5770 5769 5767 5766 5764 5762 5760 5758 5756 5754 5752 5750 5748 5746 5743 5741 5738 5736 5733 5731 5728 5725 5723 5720 5718 5715 5713 5711 5708 5705 5703 5700 5698 5695 5693 5690 5688 5685 5682 5678 5675 5672 5670
5762 5761 5759 5757 5755 5753 5751 5749 5746 5744 5741 5739 5736 5734 5731 5729 5726 5723 5720 5717 5714 5711 5708 5706 5703 5700 5697 5694 5691 5688 5685 5682 5679 5677 5674 5672 5668 5665 5662 5658 5655 5651 5649
5754 5752 5750 5748 5746 5743 5741 5739 5736 5733 5730 5727 5724 5722 5719 5716 5713 5709 5706 5703 5699 5696 5693 5690 5686 5683 5680 5677 5674 5671 5667 5664 5661 5658 5655 5652 5649 5645 5642 5638 5634 5631 5627
5745 5743 5741 5739 5736 5734 5731 5728 5725 5722 5718 5715 5712 5708 5705 5702 5698 5695 5691 5687 5684 5680 5677 5673 5670 5667 5663 5660 5657 5653 5650 5646 5643 5640 5636 5633 5629 5626 5622 5619 5615 5611 5607
5736 5734 5732 5729 5726 5723 5720 5716 5713 5709 5706 5702 5698 5694 5690 5687 5683 5679 5675 5671 5668 5664 5660 5657 5653 5650 5646 5643 5640 5636 5633 5629 5625 5622 5618 5615 5611 5608 5604 5601 5597 5593 5590
5727 5724 5721 5718 5715 5712 5708 5704 5700 5696 5692 5688 5684 5679 5675 5671 5667 5663 5658 5655 5651 5647 5643 5640 5636 5633 5629 5626 5622 5619 5616 5612 5609 5606 5602 5598 5595 5591 5588 5585 5581 5578 5575
5717 5714 5711 5707 5703 5699 5695 5691 5687 5682 5678 5673 5668 5664 5659 5655 5650 5646 5642 5638 5634 5630 5627 5623 5620 5616 5613 5610 5607 5603 5600 5597 5594 5591 5588 5584 5581 5578 5575 5572 5569 5566 5562
5706 5703 5699 5695 5691 5687 5682 5678 5673 5668 5663 5658 5653 5649 5644 5639 5635 5630 5626 5622 5619 5615 5612 5609 5605 5602 5599 5596 5593 5590 5587 5584 5581 5578 5575 5572 5569 5566 5563 5561 5558 5555 5551
5695 5691 5687 5683 5678 5674 5669 5664 5659 5654 5649 5644 5639 5634 5629 5625 5621 5617 5612 5609 5605 5602 5599 5596 5592 5589 5587 5584 5581 5578 5575 5572 5570 5567 5564 5561 5559 5556 5554 5551 5548 5545 5542
5684 5679 5675 5670 5665 5661 5656 5651 5646 5641 5636 5631 5626 5621 5616 5612 5608 5604 5600 5597 5593 5590 5587 5584 5581 5578 5576 5573 5570 5568 5565 5562 5560 5557 5554 5552 5549 5547 5545 5542 5540 5537 5534
5672 5667 5663 5658 5653 5649 5644 5639 5634 5629 5624 5619 5614 5610 5605 5601 5597 5593 5589 5586 5583 5580 5577 5574 5571 5569 5566 5563 5561 5558 5556 5553 5550 5548 5545 5543 5541 5539 5537 5535 5532 5530 5527
5660 5656 5651 5647 5642 5637 5633 5628 5623 5619 5614 5609 5605 5600 5596 5591 5588 5584 5580 5577 5574 5571 5568 5565 5563 5560 5558 5555 5552 5550 5547 5545 5542 5540 5538 5536 5534 5532 5530 5528 5526 5523 5520
5650 5645 5641 5636 5632 5628 5623 5619 5614 5609 5605 5601 5596 5592 5588 5584 5580 5576 5573 5570 5567 5564 5561 5558 5555 5553 5550 5548 5545 5543 5541 5538 5536 5534 5531 5530 5528 5526 5524 5522 5519 5517 5514